Tracking 19246 objects as of 20-Aug-2018
HD Live streaming from Space Station
objects crossing your sky now

FENGYUN 1C DEB

Track FENGYUN 1C DEB now!
10-day predictions


NORAD ID: 29922
Int'l Code: 1999-025HU
Perigee: 840.9 km
Apogee: 980.0 km
Inclination: 99.3 °
Period: 103.1 minutes
Semi major axis: 7281 km
RCS: 0.0234 m2 (small)
Launch date: May 10, 1999
Source: People's Republic of China (PRC)
Launch site: Taiyaun Space Center, China (TSC)

Note: This is SATELLITE DEBRIS
aabbcc
Your satellite tracking list
Your tracking list is empty




NASA's NSSDC Master Catalog

Two Line Element Set (TLE):
1 29922U 99025HU  18232.47563418 -.00000132  00000-0 -59328-4 0  9992
2 29922  99.3455 222.4703 0095492  93.5504  25.9847 13.97264095591383
Source of the keplerian elements: AFSPC